Home   Weather   Atascadero   Past weeks

Flag for USA Past Weather in Atascadero, California, USA — Yesterday and Last 2 Weeks

Now
49 °F

Clear.


Feels Like: 46 °F
Forecast: 49 / 83 °F
Wind: 6 mph from East

Location: Paso Robles Municipal Airport

Current Time: Apr 30, 2017 at 2:01:34 am

Latest Report: Apr 30, 2017 at 12:53 am


Visibility: 10 mi

Pressure: 30.13 "Hg

Humidity: 64%

Dew Point: 37 °F

Location of AtascaderoLocation

Past Weather in Atascadero — Graph

°F

Atascadero Temperature Yesterday

Maximum temperature yesterday: 83 °F (at 5:53 pm)
Minimum temperature yesterday: 39 °F (at 5:53 am)
Average temperature yesterday: 62 °F

High & Low Weather Summary for the Past Weeks

 TemperatureHumidityPressure
High85 °F (Apr 22, 4:53 pm)100% (Apr 18, 9:41 am)30.25 "Hg (Apr 18, 9:41 am)
Low35 °F (Apr 15, 5:53 am)15% (Apr 28, 2:53 pm)29.86 "Hg (Apr 28, 4:53 pm)
Average60 °F65%30.03 "Hg
* Reported Apr 14 11:53 pm — Apr 29 11:53 pm, Atascadero, Weather by CustomWeather, © 2017

Note: Actual official high and low records may vary slightly from our data, if they occured in-between our weather recording intervals... More about our weather records

Advertising

Atascadero Weather History for the Previous 24 Hours

Scroll right to see more
 ConditionsComfort  
Time TempWeatherWind HumidityBarometerVisibility
11:53 pm
Sat, Apr 29
54 °FClear.No wind55%30.11 "Hg10 mi
10:53 pm57 °FClear.3 mph47%30.11 "Hg10 mi
9:53 pm63 °FClear.9 mph38%30.09 "Hg10 mi
8:53 pm67 °FClear.10 mph33%30.07 "Hg10 mi
7:53 pm73 °FClear.6 mph25%30.04 "Hg10 mi
6:53 pm80 °FSunny.8 mph15%30.02 "Hg10 mi
5:53 pm83 °FSunny.8 mph15%30.01 "Hg10 mi
4:53 pm82 °FSunny.6 mph16%30.01 "Hg10 mi
3:53 pm81 °FSunny.7 mph17%30.02 "Hg10 mi
2:53 pm81 °FSunny.No wind18%30.05 "Hg10 mi
1:53 pm78 °FSunny.No wind19%30.05 "Hg10 mi
12:53 pm75 °FSunny.3 mph21%30.07 "Hg10 mi
11:53 am74 °FSunny.7 mph20%30.09 "Hg10 mi
10:53 am68 °FSunny.6 mph24%30.09 "Hg10 mi
9:53 am61 °FSunny.No wind36%30.09 "Hg10 mi
8:53 am54 °FSunny.No wind51%30.09 "Hg10 mi
7:53 am48 °FSunny.No wind63%30.09 "Hg10 mi
6:53 am41 °FSunny.5 mph76%30.08 "HgN/A
5:53 am39 °FClear.6 mph82%30.05 "HgN/A
4:53 am41 °FClear.5 mph76%30.03 "HgN/A
3:53 am41 °FClear.3 mph82%30.01 "HgN/A
2:53 am43 °FClear.3 mph76%30.01 "Hg10 mi
Weather by CustomWeather, © 2017

See weather overviewHow to use our weather pages